Regional Weather Roundup
Issued by NWS Grand Forks, ND

Home | Current Version | Previous Version | Text Only | Print | Product List | Glossary Off
Versions: 1 2 3 4 5 6 7 8 9 10 11 12 13 14 15 16 17 18 19 20 21 22 23 24 25 26 27 28 29 30 31 32 33 34 35 36 37 38 39 40 41 42 43 44 45 46 47 48 49 50

000
ASUS43 KFGF 241431
RWRFGF
PRAIRIE TO PINES  WEATHER ROUNDUP
NATIONAL WEATHER SERVICE EASTERN NORTH DAKOTA/GRAND FORKS ND
900 AM CDT WED AUG 24 2016

 **SATELLITE DATA USED TO AUGMENT SKY COVER AT AUTOMATED STATIONS**
 *****  WEATHER ACROSS EASTERN NORTH DAKOTA  *****

CITY           SKY/WX    TMP DP  RH WIND       PRES   REMARKS
GRAND FORKS    SUNNY     65  54  67 W14       29.83R
GRAND FRKS AFB SUNNY     64  54  68 W13       29.84R
GRAND FRKS NWS   N/A     64 N/A N/A W15         N/A
DEVILS LAKE    SUNNY     60  52  74 W20       29.89R
FARGO          SUNNY     64  53  67 W13       29.88R
WAHPETON ARPT  SUNNY     63  52  67 W9        29.92S
$$

 ***** WEATHER ACROSS CENTRAL AND WESTERN NORTH DAKOTA  *****

CITY           SKY/WX    TMP DP  RH WIND       PRES   REMARKS
BISMARCK       SUNNY     60  50  69 W16       30.01R
MINOT          MOSUNNY   62  52  69 W18       29.91R
JAMESTOWN      SUNNY     61  52  72 W14       29.94R
MINOT AFB      SUNNY     60  51  72 W17G28    29.89S
GARRISON         N/A     60  51  72 W14G25    29.95S
WILLISTON      PTSUNNY   58  47  66 W22G28    29.99R
DICKINSON      CLOUDY    56  48  74 W18       30.05R
HETTINGER      SUNNY     58  48  69 W20G29    30.09S
$$

 *****  OTHER AIRPORT OBSERVATIONS IN OUR AREA  *****

CITY           SKY/WX    TMP DP  RH WIND       PRES   REMARKS
WALHALLA       FAIR      63  57  82 NW13      29.82R
GRAFTON AIRPOR FAIR      64  54  68 W18G25    29.84R
VALLEY CITY AR FAIR      63  55  77 W17       29.94R
CANDO          FAIR      59  55  88 W17       29.90S
CAVALIER APRT  FAIR      64  52  63 W10       29.81S
GWINNER        FAIR      64  54  68 W14G24    29.95R
ROLLA          FAIR      59  50  72 W17G23    29.87R
 ***** THE ABOVE OBSERVATIONS ARE NON NWS ARE NOT QUALITY
       CONTROLLED AND MAY MIS-REPORT RAIN FOR SNOW...
$$

  *****  WEATHER ACROSS NORTHERN MINNESOTA  *****

CITY           SKY/WX    TMP DP  RH WIND       PRES   REMARKS
FLAG ISLAND    MOSUNNY   66  61  82 W7        29.74R HAZE
WARROAD        SUNNY     66  59  77 W8        29.78F
ROSEAU         SUNNY     66  57  72 SW5       29.79S
HALLOCK        SUNNY     63  55  77 W13       29.80S
THF RVR FALLS  SUNNY     63  53  70 W15       29.84R
BAUDETTE       PTSUNNY   68  62  81 W10       29.78R
WASKISH        SUNNY     66  61  82 W12G17    29.81S
CROOKSTON      SUNNY     64  55  72 W10       29.85R
STEPHEN NDAWN    N/A     64  54  68 W12         N/A
GREENBUSH NDAW   N/A     61  55  82 W10         N/A
$$
  *****  WEATHER ACROSS CENTRAL AND WEST MINNESOTA  *****

CITY           SKY/WX    TMP DP  RH WIND       PRES   REMARKS
FOSSTON        SUNNY     63  54  72 SW9       29.86R
BEMIDJI        SUNNY     67  55  65 W12       29.84S
PARK RAPIDS    SUNNY     67  56  67 W15       29.86S
ELBOW LAKE     FAIR      62  55  77 NW8       29.92R
WADENA         SUNNY     66  57  72 W8        29.88R
DETROIT LAKES  SUNNY     64  52  63 W12       29.90R
MOORHEAD       SUNNY     64  54  68 W8        29.90R
FERGUS FALLS   SUNNY     63  54  72 NW8       29.92S
MORRIS MN      SUNNY     66  55  68 NW8       29.92R
STAPLES        SUNNY     68  55  64 W12       29.87R
$$
  *****  WEATHER ELSEWHERE ACROSS MINNESOTA  *****

CITY           SKY/WX    TMP DP  RH WIND       PRES   REMARKS
DULUTH         CLOUDY    70  67  90 NW3       29.81F
INTRNTL FALLS  CLOUDY    70  66  87 W12       29.76R
ELY            CLOUDY    70  63  78 S7        29.80S
CLOQUET        PTSUNNY   70  63  78 SW6       29.83S
WHEATON        SUNNY     70  55  60 W12G17    29.94S
BRAINERD       MOSUNNY   71  63  75 W9        29.85R
HIBBING        PTSUNNY   67  64  90 SW3       29.80S
ALEXANDRIA     SUNNY     67  59  75 W7        29.91R
SAINT CLOUD    MOSUNNY   71  68  90 NW9       29.86R
MINNEAPOLIS    CLOUDY    71  67  87 NW7       29.87R
$$

  *****  WEATHER ACROSS SOUTH DAKOTA  *****

CITY           SKY/WX    TMP DP  RH WIND       PRES   REMARKS
SIOUX FALLS    CLOUDY    67  57  70 W3        29.98R
BROOKINGS      SUNNY     63  56  78 NW10      29.98R
WATERTOWN      SUNNY     65  53  65 NW8       29.98R
HURON          SUNNY     62  49  62 NW13      30.00R
SISSETON         N/A     68  51  54 NW15      29.93R
ABERDEEN       SUNNY     64  50  60 NW15      29.99R
MITCHELL       SUNNY     61  51  70 CALM      30.01R
PIERRE         CLOUDY    64  50  60 NW9       30.08R
MOBRIDGE       MOSUNNY   63  48  58 W12       30.03S
RAPID CITY     CLOUDY    60  45  57 N14       30.19R
$$

  *****  SOME WEATHER IN NEARBY STATES *****

CITY           SKY/WX    TMP DP  RH WIND       PRES   REMARKS
GLASGOW MT     CLOUDY    54  44  69 NW23G36   30.11R
GREAT FALLS MT CLOUDY    53  43  68 W10       30.33R
CHEYENNE WY    CLOUDY    56  44  64 SE9       30.25S
SCOTTSBLUFF NE CLOUDY    59  45  59 E8        30.20R
OMAHA NE       CLOUDY    73  65  75 NW10      29.96R
DES MOINES IA  MOSUNNY   72  65  78 SW10      29.93R
DAVENPORT IA   CLOUDY    72  71  97 SE7       29.93S
CHICAGO IL     LGT RAIN  71  70  96 S8        29.99F FOG
EAU CLAIRE WI  CLOUDY    68  67  96 SW5       29.84R
LA CROSSE WI   CLOUDY    71  32  23 S10       29.86S
$$

  *****  SOME NATIONAL WEATHER *****

CITY           SKY/WX    TMP DP  RH WIND       PRES   REMARKS
LA GUARDIA NY  MOSUNNY   80  60  50 VRB5      30.27F
RALEIGH NC     PTSUNNY   79  58  48 E6        30.32F
ATLANTA GA     PTSUNNY   78  74  87 S7        30.29S
NEW ORLEANS LA MOSUNNY   89  78  70 N8        30.16R HX 103
OKLAHOMA CITY  MOSUNNY   80  69  69 S21G28    30.05R
ALBUQUERQUE NM CLOUDY    59  50  72 CALM      30.25R
SALT LAKE CITY MOSUNNY   64  30  27 SE7       30.14R
LOS ANGELES CA PTCLDY    66  59  78 CALM      30.03R
BOISE ID       CLEAR     55  39  54 CALM      30.16R
SEATTLE WA     PTCLDY    62  55  77 N5        30.23R
$$

*** WEATHER ACROSS MANITOBA...SASKATCHEWAN AND ONTARIO ***
                ***ONTARIO***

CITY           SKY/WX    TMP DP  RH WIND       PRES   REMARKS
GERALDTON      MOSUNNY   72  64  78 S8        29.80F
THUNDER BAY    PTSUNNY   72  64  78 VRB2      29.78F
SIOUX LOOKOUT  CLOUDY    72  68  88 SW7       29.69S
TORONTO        MOSUNNY   77  61  57 S6        30.16F
BIG TROUT LK   LGT RAIN  54  50  87 E3        29.88S
PICKLE LAKE    TSTM      61  61 100 NW5       29.71R
DRYDEN         PTSUNNY   70  64  83 W18G24    29.70S
KENORA         CLOUDY    66  61  82 W14       29.74R
$$
                *** MANITOBA***

CITY           SKY/WX    TMP DP  RH WIND       PRES   REMARKS
BRANDON        MOSUNNY   57  52  82 W13       29.80S
DAUPHIN        CLOUDY    61  55  82 W12       29.74S
ISLAND LAKE    PTSUNNY   59  52  77 NE9       29.86S
PILOT MOUND      N/A     57  52  82 W8          N/A
THE PAS        CLOUDY    57  52  82 N14G20    29.93R
THOMPSON       PTSUNNY   54  48  82 NE8       30.00R
WINNIPEG       SUNNY     61  55  82 W14G20    29.74F
LYNN LAKE      SUNNY     57  46  67 MISG      30.07S
CHURCHILL      MOSUNNY   52  45  76 N14       29.99S
GILLAM         PTSUNNY   52  48  87 NE7       30.00S
$$
                ***SASKATCHEWAN***

CITY           SKY/WX    TMP DP  RH WIND       PRES   REMARKS
ESTEVAN        PTSUNNY   55  50  82 W21G29    29.90S
KINDERSLEY     CLOUDY    52  48  87 N9        30.17R
LLOYDMINSTER   PTSUNNY   50  48  93 NW10      30.20R
PRINCE ALBERT  LGT RAIN  54  52  94 N7        30.05R
REGINA         CLOUDY    55  52  88 NW21G31   29.91R
YORKTON        LGT RAIN  55  54  94 NW8       29.80R
N. BATTLEFORD    N/A     52  52 100 NW9       30.16
LA RONGE       PTSUNNY   57  50  77 N3        30.10R
SASKATOON      CLOUDY    52  52 100 NW15      30.08R
SWIFT CURRENT  LGT RAIN  48  48 100 NW16G24   30.08R FOG
$$
NOTE: THESE ARE AUTOMATED STATIONS WITH LIMITED QUALITY CONTROL
      "FAIR" INDICATES FEW OR NO CLOUDS BELOW 12,000 FEET WITH NO
      SIGNIFICANT WEATHER AND/OR OBSTRUCTIONS TO VISIBILITY.
      SKY/WX - SKY CONDITION AND SIGNIFICANT WEATHER.
      TMP - AIR TEMPERATURE.    DP   - DEWPOINT TEMPERATURE.
      RH  - RELATIVE HUMIDITY.  PRES - PRESSURE.
      HX  - HEAT INDEX.         WCI  - WIND CHILL INDEX.
$




USA.gov is the U.S. government's official web portal to all federal, state and local government web resources and services.